(65) Cybele
ephemeris date magn radius delta ra dec elong phase
Today1 Jul 202513.43.601 AU4.451 AU08h42m+17°14'29.5°8.0°
Opposition16 Mar 202611.43.306 AU2.311 AU11h46m+03°23'178.2°0.5°
(65) Cybele - 2025-07-01
astro.vanbuitenen.nl


 
-1 year
-1 month
-1 day
Now
+1 day
+1 month
+1 year

The interactive orbit chart above shows the body's path through the solar system and its position at the given date. Green and blue lines are shown perpendicular to the ecliptic plane: Green if the path is above the ecliptic plane, blue if it is below. (Left-click and drag to rotate the view; Right-click and drag to move the view; Use scroll wheel to zoom in our out.)

The orbital elements of Cybele are:

            e (Eccentricity)                : 0.1273795
            a (Semimajor axis)              : 3.4093477
            i (Inclination)                 : 3.56370
            Ω (Longitude of ascending node) : 155.10439
            ω (Argument of perihelion)      : 103.93760
            M (Mean anomaly)                : 241.48485
            Epoch                           : 2025 May 05

            L (Longitude of perihelion)     : 79.06794
            B (Latitude of perihelion)      : 3.45865
            P (Orbital period in years)     : 6.30            
        

The light curve chart below shows the estimated development of the minor planet's magnitude.


The all-sky chart below shows the path of the minor planet over the same period as the light curve. The current position is marked yellow.





The following chart shows the path of the minor planet in the next few days. The field of view is optimized for (~10x50) binoculars and finderscopes. A more printer-friendly version of the same chart can be found below.




Ephemerides:
Date       Time       RA (2000)    DEC (2000)    delta   radius  elong  phase   PA    magn
2025-07-01 00:00 UT   08 42 54.3   +17 14 10     4.451    3.601   29.5    8.0   107   13.4 
2025-07-01 01:57 UT   08 43 00.2   +17 13 50     4.451    3.601   29.4    8.0   107   13.4 
2025-07-02 00:00 UT   08 44 07.5   +17 09 58     4.457    3.600   28.8    7.8   107   13.4 
2025-07-03 00:00 UT   08 45 20.9   +17 05 42     4.463    3.599   28.2    7.7   107   13.4 
2025-07-04 00:00 UT   08 46 34.4   +17 01 24     4.468    3.598   27.5    7.5   107   13.4 
2025-07-05 00:00 UT   08 47 48.1   +16 57 03     4.474    3.597   26.9    7.3   107   13.4 
2025-07-06 00:00 UT   08 49 01.9   +16 52 40     4.479    3.596   26.2    7.2   107   13.4 
2025-07-07 00:00 UT   08 50 15.8   +16 48 14     4.485    3.595   25.6    7.0   107   13.4 
2025-07-08 00:00 UT   08 51 29.9   +16 43 45     4.490    3.594   24.9    6.8   108   13.4 
2025-07-09 00:00 UT   08 52 44.1   +16 39 13     4.495    3.593   24.3    6.7   108   13.4 
2025-07-10 00:00 UT   08 53 58.5   +16 34 39     4.500    3.592   23.6    6.5   108   13.4 
2025-07-11 00:00 UT   08 55 12.9   +16 30 03     4.504    3.591   23.0    6.3   108   13.4 
2025-07-12 00:00 UT   08 56 27.5   +16 25 23     4.509    3.590   22.3    6.2   108   13.4 
2025-07-13 00:00 UT   08 57 42.2   +16 20 41     4.513    3.588   21.7    6.0   108   13.3 
2025-07-14 00:00 UT   08 58 57.0   +16 15 57     4.517    3.587   21.1    5.8   108   13.3 
2025-07-15 00:00 UT   09 00 12.0   +16 11 10     4.521    3.586   20.4    5.7   109   13.3 
2025-07-16 00:00 UT   09 01 27.0   +16 06 20     4.525    3.585   19.8    5.5   109   13.3 
2025-07-17 00:00 UT   09 02 42.1   +16 01 28     4.529    3.584   19.1    5.3   109   13.3 
2025-07-18 00:00 UT   09 03 57.3   +15 56 33     4.533    3.583   18.5    5.2   109   13.3 
2025-07-19 00:00 UT   09 05 12.6   +15 51 36     4.536    3.582   17.8    5.0   109   13.3 
2025-07-20 00:00 UT   09 06 28.0   +15 46 36     4.539    3.581   17.2    4.8   109   13.3 
2025-07-21 00:00 UT   09 07 43.5   +15 41 34     4.542    3.580   16.6    4.6   109   13.3 
2025-07-22 00:00 UT   09 08 59.1   +15 36 29     4.545    3.579   15.9    4.5   110   13.3 
2025-07-23 00:00 UT   09 10 14.7   +15 31 22     4.548    3.578   15.3    4.3   110   13.3 
2025-07-24 00:00 UT   09 11 30.4   +15 26 12     4.551    3.577   14.6    4.1   110   13.3 
2025-07-25 00:00 UT   09 12 46.2   +15 21 00     4.553    3.576   14.0    3.9   110   13.3 
2025-07-26 00:00 UT   09 14 02.0   +15 15 46     4.555    3.575   13.4    3.8   110   13.2 
2025-07-27 00:00 UT   09 15 17.9   +15 10 29     4.558    3.574   12.7    3.6   111   13.2 
2025-07-28 00:00 UT   09 16 33.8   +15 05 10     4.560    3.573   12.1    3.4   111   13.2 


    Terminology:
            
    delta:  distance between minor planet and earth in AU
    radius: distance between minor planet and sun in AU
    magn:   magnitude (brightness) estimate    
    ra:     right ascension in hours (24h = 360deg)
    dec:    declination in degrees
    elong:  elongation in degrees (angle sun-earth-minor planet)    
    phase:  phase angle in degrees (angle sun-minor planet-earth)        
    AU:     Astronomical Unit (mean distance between earth and sun: 149597870.7 km
    

Orbital elements provided by the MPC (Minor Planet Center).
Calculations by a modified version of AAPlus, a C# implementation of the AA+ project by PJ Naughter from the algorithms presented in the book "Astronomical Algorithms" by Jean Meeus.
NGC2000 dso catalog and star labels from VizieR as provided by the Strasbourg astronomical Data Center.
Tycho2 catalog from the ESO archive.